N46TW KART-KIAG

Flight info

Callsign N46TW
Flight time N/A
Altitude 11000
Route BRUIN SYR ROC
Aircraft PC12/L-SDFGRWY/S

Departure

Time N/A
Airport Watertown International Airport (KART)

Arrival

Time 2026-05-06 02:05
Airport Niagara Falls International Airport (KIAG)
Time Latitude Longitude Altitude Speed Heading
2026-05-06 01:52 43.11445 -78.31722 10986 ft 206 kts 263°
2026-05-06 01:52 43.11431 -78.33652 10977 ft 206 kts 263°
2026-05-06 01:52 43.11413 -78.35595 10978 ft 205 kts 263°
2026-05-06 01:53 43.11403 -78.37512 10989 ft 196 kts 263°
2026-05-06 01:53 43.11385 -78.39320 10989 ft 184 kts 263°
2026-05-06 01:53 43.11409 -78.41016 10976 ft 176 kts 271°
2026-05-06 01:53 43.11862 -78.42561 10768 ft 180 kts 285°
2026-05-06 01:54 43.12477 -78.44086 10252 ft 188 kts 289°
2026-05-06 01:54 43.13166 -78.45629 9704 ft 190 kts 290°
2026-05-06 01:54 43.13862 -78.47141 9168 ft 191 kts 291°
2026-05-06 01:54 43.14561 -78.48630 8870 ft 180 kts 292°
2026-05-06 01:55 43.15216 -78.50027 8515 ft 176 kts 292°
2026-05-06 01:55 43.15877 -78.51444 8115 ft 175 kts 292°
2026-05-06 01:55 43.16529 -78.52838 7722 ft 174 kts 292°
2026-05-06 01:55 43.17174 -78.54227 7329 ft 172 kts 293°
2026-05-06 01:56 43.17800 -78.55562 6942 ft 165 kts 294°
2026-05-06 01:56 43.18409 -78.56869 6553 ft 158 kts 295°
2026-05-06 01:56 43.18984 -78.58097 6273 ft 154 kts 294°
2026-05-06 01:56 43.19563 -78.59348 6005 ft 160 kts 295°
2026-05-06 01:57 43.20172 -78.60655 5746 ft 163 kts 296°
2026-05-06 01:57 43.20782 -78.61963 5488 ft 161 kts 296°
2026-05-06 01:57 43.21383 -78.63244 5215 ft 159 kts 297°
2026-05-06 01:57 43.21969 -78.64510 4962 ft 156 kts 297°
2026-05-06 01:58 43.22549 -78.65752 4713 ft 155 kts 297°
2026-05-06 01:58 43.23125 -78.66988 4457 ft 155 kts 297°
2026-05-06 01:58 43.23703 -78.68233 4193 ft 155 kts 298°
2026-05-06 01:58 43.24258 -78.69496 3934 ft 153 kts 289°
2026-05-06 01:59 43.24185 -78.70933 3670 ft 152 kts 249°
2026-05-06 01:59 43.23670 -78.72168 3592 ft 144 kts 238°
2026-05-06 01:59 43.23099 -78.73242 3578 ft 138 kts 235°
2026-05-06 01:59 43.22495 -78.74303 3353 ft 148 kts 234°
2026-05-06 02:00 43.21827 -78.75440 3040 ft 153 kts 233°
2026-05-06 02:00 43.21126 -78.76603 2728 ft 154 kts 232°
2026-05-06 02:00 43.20435 -78.77744 2417 ft 153 kts 231°
2026-05-06 02:00 43.19768 -78.78841 2293 ft 143 kts 231°
2026-05-06 02:01 43.19142 -78.79865 2285 ft 133 kts 231°
2026-05-06 02:01 43.18540 -78.80853 2291 ft 142 kts 231°
2026-05-06 02:01 43.17882 -78.81936 2290 ft 152 kts 231°
2026-05-06 02:01 43.17169 -78.83109 2289 ft 151 kts 231°
2026-05-06 02:02 43.16481 -78.84262 2236 ft 152 kts 232°
2026-05-06 02:02 43.15782 -78.85427 2050 ft 159 kts 231°
2026-05-06 02:02 43.15098 -78.86538 1869 ft 134 kts 230°
2026-05-06 02:02 43.14507 -78.87503 1681 ft 122 kts 229°
2026-05-06 02:03 43.13931 -78.88440 1516 ft 124 kts 229°
2026-05-06 02:03 43.13379 -78.89342 1350 ft 121 kts 229°
2026-05-06 02:03 43.12820 -78.90251 1180 ft 119 kts 227°
2026-05-06 02:03 43.12270 -78.91132 1027 ft 115 kts 227°
2026-05-06 02:04 43.11745 -78.91987 833 ft 103 kts 229°
2026-05-06 02:04 43.11341 -78.92667 692 ft 83 kts 225°
2026-05-06 02:04 43.10961 -78.93277 606 ft 82 kts 226°
2026-05-06 02:04 43.10590 -78.93870 586 ft 66 kts 224°
2026-05-06 02:05 43.10366 -78.94225 585 ft 36 kts 224°
2026-05-06 02:05 43.10233 -78.94455 582 ft 24 kts 230°
2026-05-06 02:05 43.10170 -78.94495 582 ft 10 kts 112°
2026-05-06 02:05 43.10186 -78.94378 582 ft 13 kts 91°
2026-05-06 02:06 43.10186 -78.94367 582 ft 0 kts 91°
2026-05-06 02:06 43.10186 -78.94356 582 ft 4 kts 90°
2026-05-06 02:06 43.10157 -78.94360 582 ft 12 kts 239°
2026-05-06 02:07 43.10087 -78.94425 582 ft 10 kts 174°
2026-05-06 02:07 43.10021 -78.94436 582 ft 6 kts 224°
2026-05-06 02:07 43.10013 -78.94453 582 ft 0 kts 270°